Zurück zum Katalog

ANSER-FLW2

AktivWissenschaftPO
NORAD 58018·PAYLOAD·🇪🇸 Spain

Gestartet Oct 9, 2023 von Guiana Space Centre

Loading…

Nächste Überflüge (nächste 24 Stunden)

TLE

AktuellSource: Space-Track

Epoche: Sep 14, 2026, 12:25 UTC

1 58018U 23155C   26257.51766272  .00025480  00000-0  35118-3 0  9996
2 58018  97.5491 351.2104 0002693 147.6689 212.4731 15.57212170162815

Verfolge ANSER-FLW2 in Echtzeit mit AllMySat

Download on the App Store